Terminal Aerodrome Forecast
Issued by NWS Upton, NY

Home | Current Version | Previous Version | Text Only | Print | Product List | Glossary On
Versions: 1 2 3 4 5 6 7 8 9 10 11 12 13 14 15 16 17 18 19 20 21 22 23 24 25 26 27 28
000
FTUS41 KOKX 200800 AAA
TAFJFK
TAF AMD
KJFK 200831Z 2009/2112 VRB03KT P6SM FEW015 SCT080
     FM201400 11007KT P6SM SCT025 SCT250
     FM201600 15010KT P6SM SCT050 SCT250
     FM210200 15005KT P6SM SCT050 BKN150
     FM210700 VRB04KT P6SM BKN050 BKN150=

USA.gov is the U.S. government's official web portal to all federal, state and local government web resources and services.